Accueil
METAR-TAF:

METAR-TAF

Aéroports :

Monbetsu, Japon

latitude: 44-15N, longitude: 143-32E, altitude: 6 m

Observation

Le bulletin a été fait il y a 11 heures et 49 minutes, à 07:00 UTC
Vent 7 kt de nord/nord-ouest
Température 10°C
Humidité 87%
Pression 1000 hPa
Visibilité 10 km ou plus
Quelques nuages à une hauteur de 900 ft
Nuages épars à une hauteur de 5000 ft
Nuages fragmentés à une hauteur de 6000 ft
faibles averses de pluie

METAR: RJEB 250700Z 33007KT 9999 -SHRA FEW009 SCT050 BKN060 10/08 Q1000

Heure: 03:49 (18:49 UTC)


TAF: absent

Observations et prévisions météorologiques de plus de 4000 aéroports (messages METAR et TAF).

Les stations disponibles sont représentées par des disques jaunes et rouges sur la carte.

Passer la souris dessus pour voir le nom de la station.

Cliquer dessus pour voir les observations et prévisions météorologiques.

Pour changer de carte: cliquez sur les boutons verts avec une croix noire pour zoomer, sur le bouton vert avec un tiret pour effectuer un zoom arrière, ou sur les flèches vertes pour les cartes adjacentes.


METAR-TAF: